This demonstration page uses our WeatherBlox Daily Observations layout. Learn more.

Left ArrowRight Arrow

Hourly Observations for August 25, 2017

Temp ( °F °C ) Dew Point ( °F °C ) Humidity (%) Winds ( mph kmh ) Pressure ( in mb ) Visibility ( mi km ) Precip ( " mm )
12:52 am 00:52 Clear 68 20 59 15 73 73 ESE 9 15 30.04 1017 10 16 0.00 0.00
1:52 am 01:52 Clear 65 18.3 59 15 81 81 SE 6 9 30.05 1018 10 16 0.00 0.00
2:52 am 02:52 Clear 65 18.3 59 15 81 81 ESE 7 11 30.05 1018 10 16 0.00 0.00
3:52 am 03:52 Clear 64 17.8 59 15 84 84 ESE 5 7 30.05 1018 10 16 0.00 0.00
4:52 am 04:52 Clear 64 17.8 59 15 84 84 SE 5 7 30.05 1018 10 16 0.00 0.00
5:52 am 05:52 Clear 64 17.8 59 15 84 84 Calm 30.06 1018 10 16 0.00 0.00
6:52 am 06:52 Sunny 64 17.8 58 14.4 81 81 ESE 7 11 30.07 1018 10 16 0.00 0.00
7:52 am 07:52 Sunny 64 17.8 59 15 84 84 SE 8 13 30.09 1019 10 16 0.00 0.00
8:52 am 08:52 Sunny 68 20 59 15 73 73 SE 12 19 30.10 1019 10 16 0.00 0.00
9:52 am 09:52 Sunny 72 22.2 60 15.6 66 66 SSE 10 17 30.11 1020 10 16 0.00 0.00
10:52 am 10:52 Sunny 74 23.3 60 15.6 62 62 SE 14 22 30.13 1020 10 16 0.00 0.00
11:52 am 11:52 Sunny 77 25 60 15.6 56 56 SSE 14 22 30.11 1020 10 16 0.00 0.00
12:52 pm 12:52 Sunny 78 25.6 60 15.6 54 54 ESE 13 20 30.11 1020 10 16 0.00 0.00
1:52 pm 13:52 Sunny 79 26.1 61 16.1 54 54 SE 9 15 30.09 1019 10 16 0.00 0.00
2:52 pm 14:52 Sunny 80 26.7 59 15 49 49 SE 8 13 30.08 1019 10 16 0.00 0.00
3:52 pm 15:52 Sunny 80 26.7 61 16.1 52 52 SE 14 22 30.08 1019 10 16 0.00 0.00
4:52 pm 16:52 Sunny 79 26.1 61 16.1 54 54 SE 12 19 30.08 1019 10 16 0.00 0.00
5:52 pm 17:52 Sunny 78 25.6 61 16.1 56 56 ESE 10 17 30.07 1018 10 16 0.00 0.00
6:52 pm 18:52 Sunny 76 24.4 61 16.1 60 60 E 12 19 30.07 1018 10 16 0.00 0.00
7:52 pm 19:52 Sunny 75 23.9 61 16.1 62 62 ESE 8 13 30.08 1019 10 16 0.00 0.00
8:52 pm 20:52 Clear 73 22.8 61 16.1 66 66 ESE 8 13 30.08 1019 10 16 0.00 0.00
9:52 pm 21:52 Clear 72 22.2 61 16.1 68 68 ESE 8 13 30.09 1019 10 16 0.00 0.00
10:52 pm 22:52 Clear 71 21.7 61 16.1 71 71 ESE 7 11 30.09 1019 10 16 0.00 0.00
11:52 pm 23:52 Clear 69 20.6 62 16.7 78 78 SE 8 13 30.09 1019 10 16 0.00 0.00

Powered by AerisWeather